WO1J Weather Reports


time (UTC)temp
F
wind
direction
speed
knots
gust
knots
rain 1hr
in
rain 24hr
in
rain mn
in
humidity
%
barometer
mb
20260506014505 64 175 0.0 3.5 0.00 0.00 0.00 71 1007.5
20260506013041 64 173 0.9 6.1 0.00 0.00 0.00 71 1007.6
20260506011608 64 190 1.7 4.3 0.00 0.00 0.00 72 1007.6
20260506010025 64 142 0.0 1.7 0.00 0.00 0.00 75 1007.5
20260506004546 64 161 0.9 5.2 0.00 0.00 0.00 77 1007.2
20260506003012 63 177 0.0 2.6 0.00 0.00 0.00 82 1007.3
20260506001532 63 288 0.0 1.7 0.00 0.00 0.00 81 1007.0
20260506000053 63 189 0.9 5.2 0.00 0.00 0.00 81 1005.9
20260505234525 65 269 1.7 4.3 0.00 0.00 0.00 80 1005.6
20260505233047 67 284 1.7 7.0 0.00 0.00 0.00 72 1006.0
20260505231512 67 296 2.6 13.0 0.00 0.00 0.00 69 1005.9
20260505230051 68 296 8.7 14.8 0.00 0.00 0.00 66 1005.9
20260505224502 68 214 2.6 8.7 0.00 0.00 0.00 60 1005.6
20260505223029 69 183 3.5 10.4 0.00 0.00 0.00 58 1003.4
20260505221555 70 159 3.5 13.0 0.00 0.00 0.00 57 1003.4
20260505220018 70 186 2.6 15.6 0.00 0.00 0.00 56 1003.2
20260505214548 71 165 7.0 20.0 0.00 0.00 0.00 54 1003.2
20260505213017 73 149 1.7 11.3 0.00 0.00 0.00 55 1003.2
20260505211542 73 172 6.1 21.7 0.00 0.00 0.00 52 1002.7
20260505210008 73 206 6.1 14.8 0.00 0.00 0.00 53 1002.8
20260505204534 73 171 6.1 19.1 0.00 0.00 0.00 53 1002.8
20260505203002 74 165 3.5 13.0 0.00 0.00 0.00 52 1002.9
20260505201520 74 126 4.3 13.0 0.00 0.00 0.00 53 1002.9
20260505200042 74 226 6.1 16.5 0.00 0.00 0.00 52 1003.1
20260505194510 75 141 8.7 19.1 0.00 0.00 0.00 50 1003.2
20260505193037 76 188 7.0 16.5 0.00 0.00 0.00 50 1003.4
20260505191503 76 188 6.1 18.2 0.00 0.00 0.00 49 1003.6
20260505190027 76 155 7.8 15.6 0.00 0.00 0.00 49 1004.0
20260505184554 75 215 3.5 13.0 0.00 0.00 0.00 52 1004.2
20260505183022 75 187 3.5 13.9 0.00 0.00 0.00 52 1004.3
20260505181551 76 175 7.0 15.6 0.00 0.00 0.00 51 1004.2
20260505180018 75 140 6.1 13.9 0.00 0.00 0.00 54 1004.4
20260505174549 76 173 6.1 19.1 0.00 0.00 0.00 52 1004.3
20260505173032 79 201 4.3 13.0 0.00 0.00 0.00 48 1004.5
20260505171537 79 155 4.3 12.2 0.00 0.00 0.00 46 1004.9
20260505170002 78 165 3.5 10.4 0.00 0.00 0.00 44 1005.3
20260505164545 78 223 3.5 7.8 0.00 0.00 0.00 45 1005.5
20260505163054 77 128 3.5 11.3 0.00 0.00 0.00 47 1005.9
20260505161501 76 250 3.5 7.8 0.00 0.00 0.00 48 1006.0
20260505153012 73 313 2.6 9.6 0.00 0.00 0.00 51 1007.0
20260505151542 72 322 3.5 9.6 0.00 0.00 0.00 52 1007.2
20260505124518 61 276 0.9 7.8 0.00 0.00 0.00 64 1007.5
20260505123037 60 181 3.5 7.8 0.00 0.00 0.00 64 1007.3
20260505121547 59 199 1.7 8.7 0.00 0.00 0.00 66 1007.4
20260505120006 57 214 3.5 7.8 0.00 0.00 0.00 67 1007.6
20260505114540 56 158 0.9 6.1 0.00 0.00 0.00 70 1007.7
20260505113002 55 205 0.9 5.2 0.00 0.00 0.00 72 1007.6
20260505111533 54 184 0.9 6.1 0.00 0.00 0.00 73 1007.8
20260505110105 53 157 1.7 7.0 0.00 0.00 0.00 75 1007.7
20260505101522 50 161 0.0 2.6 0.00 0.00 0.00 76 1007.8
20260505100055 50 156 0.9 4.3 0.00 0.00 0.00 76 1007.7
20260505094517 50 170 0.9 4.3 0.00 0.00 0.00 75 1007.8
20260505093043 51 134 1.7 4.3 0.00 0.00 0.00 74 1007.8
20260505091507 51 139 0.9 4.3 0.00 0.00 0.00 73 1007.9
20260505090048 52 154 0.9 5.2 0.00 0.00 0.00 71 1007.8
20260505084554 53 163 0.9 3.5 0.00 0.00 0.00 70 1008.0
20260505083032 53 150 1.7 4.3 0.00 0.00 0.00 69 1008.0
20260505081558 54 162 0.9 4.3 0.00 0.00 0.00 68 1008.2
20260505080014 54 188 0.9 2.6 0.00 0.00 0.00 67 1008.2
20260505074550 54 186 0.9 2.6 0.00 0.00 0.00 68 1008.2
20260505073005 54 185 1.7 3.5 0.00 0.00 0.00 68 1008.2
20260505071535 53 164 0.9 3.5 0.00 0.00 0.00 68 1008.0
20260505070100 54 146 1.7 4.3 0.00 0.00 0.00 68 1008.1
20260505064524 54 128 0.9 3.5 0.00 0.00 0.00 67 1008.2
20260505063056 55 166 0.9 1.7 0.00 0.00 0.00 65 1008.1
20260505061522 56 240 0.0 3.5 0.00 0.00 0.00 64 1008.1
20260505060030 56 223 0.0 5.2 0.00 0.00 0.00 63 1008.1
20260505054616 57 196 1.7 6.1 0.00 0.00 0.00 62 1008.1
20260505053020 57 202 1.7 8.7 0.00 0.00 0.00 62 1008.1
20260505051549 57 208 1.7 6.1 0.00 0.00 0.00 61 1008.0
20260505041519 58 205 0.9 6.1 0.00 0.00 0.00 60 1007.7
20260505040044 58 216 2.6 6.1 0.00 0.00 0.00 59 1007.6
20260505034514 58 241 1.7 6.1 0.00 0.00 0.00 59 1007.5
20260505033047 57 217 1.7 7.0 0.00 0.00 0.00 60 1007.5
20260505031507 55 169 1.7 6.1 0.00 0.00 0.00 63 1007.4
20260505030037 55 155 1.7 5.2 0.00 0.00 0.00 63 1007.3
20260505024508 57 181 1.7 4.3 0.00 0.00 0.00 58 1007.2
20260505023037 58 165 1.7 3.5 0.00 0.00 0.00 55 1007.2
20260505021612 58 159 0.9 2.6 0.00 0.00 0.00 53 1007.1
20260505020027 60 209 0.0 1.7 0.00 0.00 0.00 51 1007.0